Regional Weather Roundup
Issued by NWS Charleston, SC

Current Version | Previous Version | Graphics & Text | Print | Product List | Glossary On
Versions: 1 2 3 4 5 6 7 8 9 10 11 12 13 14 15 16 17 18 19 20 21 22 23 24 25 26 27 28 29 30 31 32 33 34 35 36 37 38 39 40 41 42 43 44 45 46 47 48 49 50
000
ASUS42 KCHS 010326
RWRCHS

REGIONAL WEATHER ROUNDUP
NATIONAL WEATHER SERVICE CHARLESTON SC
1000 PM EST SAT FEB 28 2015

NOTE: "FAIR" INDICATES FEW OR NO CLOUDS BELOW 12,000 FEET WITH NO
SIGNIFICANT WEATHER AND/OR OBSTRUCTIONS TO VISIBILITY.

NOT ALL STATIONS ARE QUALITY CONTROLLED BY THE NATIONAL
WEATHER SERVICE. USE DATA WITH CAUTION...ESPECIALLY
DEWPOINT OBSERVATIONS.

SCZ027-030-031-034>040-042>050-010400-
...SOUTHEAST SOUTH CAROLINA...

CITY           SKY/WX    TMP DP  RH WIND       PRES   REMARKS
N CHARLESTON   CLOUDY    45  34  65 NE7       30.59S
WATERFRONT PRK   N/A     45 N/A N/A NE15        N/A
MOUNT PLEASANT CLOUDY    45  32  61 NE7       30.58S
PINOPOLIS        N/A     46  34  61 NE13      30.53S
MONCKS CORNER  LGT RAIN  46  30  53 NE10      30.59F
SUMMERVILLE    CLOUDY    45  34  65 NE6       30.60S
BEAUFORT MCAS  CLOUDY    45  38  76 NE10      30.56S
BEAUFORT ARPT  CLOUDY    45  37  76 NE15      30.55F
HILTON HEAD IS DRIZZLE   46  37  71 N13G18    30.56F
WALTERBORO     CLOUDY    46  36  66 NE8       30.58S
ALLENDALE      LGT RAIN  45  39  81 NE3       30.57S

...SOUTHERN MIDLANDS AND PEE DEE...

CITY           SKY/WX    TMP DP  RH WIND       PRES   REMARKS
GEORGETOWN     NOT AVBL
KINGSTREE      NOT AVBL
ORANGEBURG     CLOUDY    46  28  49 E9        30.60S
BARNWELL       CLOUDY    46  32  57 NE7       30.58F
AIKEN          LGT RAIN  41  36  81 NE7       30.63R
MANNING        CLOUDY    45  32  61 NE6       30.61F
COLUMBIA       CLOUDY    46  26  45 NE10      30.61S
SUMTER         LGT RAIN  41  30  65 NE8       30.61S
FLORENCE       LGT RAIN  41  25  53 NE14      30.64F
MYRTLE BEACH   CLOUDY    45  25  45 NE12      30.65F
N MYRTLE BEACH CLOUDY    43  24  47 NE14      30.63F

$$

GAZ063-065-086>088-099>101-113>116-118-119-134>141-150-010400-
...SOUTHEAST GEORGIA...

CITY           SKY/WX    TMP DP  RH WIND       PRES   REMARKS
SAVANNAH ARPT  LGT RAIN  44  38  79 NE8       30.55F
HUNTER AAF     CLOUDY    43  39  87 NE8       30.52F
FORT STEWART   CLOUDY    44  39  84 NE8       30.52S
STATESBORO     CLOUDY    43  43 100 NE3       30.56S
SYLVANIA       DRIZZLE   43  42  97 E7        30.56F
CLAXTON        CLOUDY    43  41  93 NE8       30.55S

...CSRA...CENTRAL AND FAR SOUTHEAST GEORGIA...

CITY           SKY/WX    TMP DP  RH WIND       PRES   REMARKS
THOMSON        CLOUDY    48  35  62 NE5       30.64R
AUGUSTA-BUSH   LGT RAIN  42  35  76 NE9       30.61R
AUGUSTA-DANIEL CLOUDY    46  33  60 NE12      30.59R
SWAINSBORO     CLOUDY    45  43  93 NE6       30.56F
VIDALIA        LGT RAIN  45  43  93 NE9       30.54S
EASTMAN        DRIZZLE   44  44 100 E8        30.57R
HAZLEHURST     CLOUDY    45  45 100 E8        30.52S
ALMA           CLOUDY    43  40  89 NE7       30.51F
WAYCROSS       CLOUDY    47  44  91 E9        30.50F
JESUP          CLOUDY    46  43  87 E12       30.52S
BAXLEY         CLOUDY    45  43  93 E8        30.52S
BRUNSWICK      CLOUDY    46  43  87 NE12      30.51S
SAINT SIMONS   CLOUDY    49  44  83 NE20G30   30.50R

$$

SCZ027-028-034-036>038-045-046-048>050-GAZ119-141-010400-
...LAKE AND SUPPLEMENTAL COASTAL OBSERVATIONS...

STATION/POSITION TIME  TEMP    WIND        PRES    WAVE   SWELL
                       AIR SEA DIR/SP/G            HT/PER HT/PER/DIR
                 (UTC) (F)     (DEG/KT/KT) (MB)    (FT/S) (FT/S/D)
UPR LAKE MARION  NOT AVBL
WINYAH BAY       0145   44      40/ 13     1035.0
LAKE MURRAY      0200   44      40/  4/  6 1035.9S
ACE BASIN NERRS  NOT AVBL
FORT PULASKI     0200   47 49   40/ 19/ 25 1034.5S
SAPELO ISLAND    0200   46      30/ 15     1033.0R

$$

ANZ835-935-AMZ111-154-330-350-352-354-370-450-454-472-010400-
...C-MAN AND BUOY OBSERVATIONS...

STATION/POSITION TIME  TEMP    WIND        PRES    WAVE   SWELL
                       AIR SEA DIR/SP/G            HT/PER HT/PER/DIR
                 (UTC) (F)     (DEG/KT/KT) (MB)    (FT/S) (FT/S/D)
BUOY 41004       0250   56 67   40/ 25/ 31 1033.5R  11/ 8   7/16
BUOY 41008       0250   53 52   40/ 21/ 27 1031.6F   9/ 8
FOLLY BEACH CMAN 0300   45      30/ 19/ 20 1035.8F
CAPERS NEARSHORE NOT AVBL
FRIPP NEARSHORE  0200   48      50/ 27/ 29 1032.5S


STATION/POSITION TIME  TEMP    WIND        PRES    WAVE   SWELL
                       AIR SEA DIR/SP/G            HT/PER HT/PER/DIR
                 (UTC) (F)     (DEG/KT/KT) (MB)    (FT/S) (FT/S/D)
5E ST. MARYS GA  0221      52                N/A     7/ 6   2/ 90/11
FRYING PAN BUOY  0250   49 62   50/ 25/ 29 1036.2F   9/ 8   3/110/10
BUOY 41025       NOT AVBL
CAPE LOOKOUT NC  0300   36      20/ 15/ 18 1038.1F
BUOY 41002       0250   65 70   70/ 23/ 27 1034.2R  12/ 9
BUOY 41010       0220   71 73   80/ 23/ 29 1028.9R
ST AUGUSTINE FL  0300   54     350/ 12/ 13 1030.4F


$$


USA.gov is the U.S. government's official web portal to all federal, state and local government web resources and services.